FW7296 Weather Reports


Display with metric or nautical units.
time (UTC)temp
F
wind
direction
speed
MPH
gust
MPH
rain 1hr
in
rain 24hr
in
rain mn
in
humidity
%
barometer
mb
20260507101554 52 127 0.0 2.0 0.00 0.00 0.00 79 1021.4
20260507100058 52 110 0.0 2.0 0.00 0.00 0.00 79 1021.3
20260507094559 52 195 1.0 2.0 0.00 0.00 0.00 79 1021.4
20260507093056 52 186 0.0 2.0 0.00 0.00 0.00 79 1021.4
20260507091557 53 0 1.0 4.0 0.00 0.00 0.00 80 1021.4
20260507090105 53 214 0.0 1.0 0.00 0.00 0.00 80 1021.4
20260507084559 53 156 0.0 2.0 0.00 0.00 0.00 80 1021.4
20260507083057 53 227 0.0 1.0 0.00 0.00 0.00 80 1021.4
20260507081555 53 230 0.0 1.0 0.00 0.00 0.00 79 1021.5
20260507080106 53 0 0.0 3.0 0.00 0.00 0.00 79 1021.4
20260507074605 54 208 2.0 4.0 0.00 0.00 0.00 78 1021.5
20260507073104 53 160 0.0 1.0 0.00 0.00 0.00 80 1021.4
20260507071556 54 0 0.0 1.0 0.00 0.00 0.00 80 1021.3
20260507070107 54 217 2.0 5.0 0.00 0.00 0.00 80 1021.4
20260507064559 54 202 2.0 5.0 0.00 0.00 0.00 80 1021.3
20260507063054 54 241 1.0 5.0 0.00 0.00 0.00 81 1021.4
20260507061557 55 186 2.0 7.0 0.00 0.00 0.00 81 1021.4
20260507060100 55 240 1.0 4.0 0.00 0.00 0.00 80 1021.4
20260507054603 55 215 2.0 5.0 0.00 0.00 0.00 80 1021.4
20260507053124 55 185 2.0 5.0 0.00 0.00 0.00 79 1021.4
20260507051555 56 139 1.0 10.0 0.00 0.00 0.00 79 1021.3
20260507050058 56 150 1.0 5.0 0.00 0.00 0.00 80 1021.3
20260507044613 56 226 1.0 3.0 0.00 0.00 0.00 80 1021.4
20260507043100 56 0 0.0 3.0 0.00 0.00 0.00 80 1021.3
20260507041610 57 0 0.0 2.0 0.00 0.00 0.00 79 1021.3
20260507034601 57 204 2.0 4.0 0.00 0.00 0.00 78 1021.0
20260507033105 57 0 0.0 4.0 0.00 0.00 0.00 77 1020.8
20260507031602 58 226 0.0 6.0 0.00 0.00 0.00 77 1020.7
20260507030108 58 132 1.0 3.0 0.00 0.00 0.00 76 1020.7
20260507024609 58 217 1.0 4.0 0.00 0.00 0.00 75 1020.6
20260507023054 58 189 1.0 5.0 0.00 0.00 0.00 75 1020.5
20260507021558 59 234 1.0 4.0 0.00 0.00 0.00 74 1020.4
20260507020101 59 227 2.0 8.0 0.00 0.00 0.00 74 1020.3
20260507014559 60 182 1.0 4.0 0.00 0.00 0.00 74 1020.4
20260507013102 60 192 0.0 5.0 0.00 0.00 0.00 73 1020.3
20260507011556 60 205 0.0 7.0 0.00 0.00 0.00 73 1020.4
20260507010052 60 236 4.0 10.0 0.00 0.00 0.00 73 1020.4
20260507004558 61 233 2.0 7.0 0.00 0.00 0.00 72 1020.3
20260507003100 61 257 3.0 7.0 0.00 0.00 0.00 71 1020.3
20260507001556 62 246 2.0 9.0 0.00 0.00 0.00 71 1020.5
20260507000056 62 193 3.0 10.0 0.00 0.00 0.00 70 1020.4
20260506234606 63 233 3.0 11.0 0.00 0.00 0.00 68 1020.3
20260506233058 63 226 1.0 6.0 0.00 0.00 0.00 71 1020.3
20260506231556 61 265 2.0 5.0 0.00 0.00 0.00 72 1020.4
20260506224602 61 0 1.0 4.0 0.00 0.00 0.00 71 1020.6
20260506223057 61 99 1.0 4.0 0.00 0.00 0.00 72 1020.6
20260506221555 61 150 1.0 4.0 0.00 0.00 0.00 74 1020.8
20260506220100 61 295 1.0 3.0 0.00 0.00 0.00 73 1020.9
20260506214555 60 158 0.0 3.0 0.00 0.00 0.00 76 1020.9
20260506213107 59 178 2.0 7.0 0.00 0.00 0.00 75 1020.9
20260506211555 59 236 2.0 7.0 0.00 0.00 0.00 77 1020.9
20260506210100 59 261 5.0 8.0 0.00 0.00 0.00 78 1020.9
20260506204556 59 254 2.0 6.0 0.00 0.00 0.00 79 1020.9
20260506203058 59 0 0.0 5.0 0.00 0.00 0.00 80 1020.8
20260506201555 58 229 2.0 8.0 0.00 0.00 0.00 81 1020.8
20260506200054 57 158 2.0 6.0 0.00 0.00 0.00 83 1020.8
20260506194554 57 241 2.0 9.0 0.00 0.00 0.00 84 1020.7
20260506193055 57 300 3.0 5.0 0.00 0.00 0.00 84 1020.6
20260506191554 57 121 2.0 4.0 0.00 0.00 0.00 85 1020.7
20260506190054 56 0 0.0 3.0 0.00 0.00 0.00 85 1020.8
20260506184555 56 127 1.0 4.0 0.00 0.00 0.00 86 1020.8
20260506183054 56 131 1.0 5.0 0.00 0.00 0.00 86 1020.5
20260506181558 56 169 1.0 6.0 0.00 0.00 0.00 86 1020.6
20260506180057 55 146 3.0 5.0 0.00 0.00 0.00 86 1020.6
20260506174553 55 139 1.0 5.0 0.00 0.00 0.00 88 1020.5
20260506173124 55 214 1.0 7.0 0.00 0.00 0.00 87 1020.5
20260506171601 55 257 2.0 4.0 0.00 0.00 0.00 87 1020.6
20260506170057 55 148 0.0 3.0 0.00 0.00 0.00 88 1020.5
20260506164601 55 2 1.0 4.0 0.00 0.00 0.00 88 1020.3
20260506163105 55 238 1.0 3.0 0.00 0.00 0.00 87 1020.1
20260506161629 54 0 0.0 1.0 0.00 0.00 0.00 89 1020.2
20260506160108 54 0 0.0 2.0 0.00 0.00 0.00 90 1020.3
20260506154600 54 154 0.0 3.0 0.00 0.00 0.00 91 1020.1
20260506153100 53 177 1.0 2.0 0.00 0.00 0.00 91 1020.2
20260506151558 53 205 0.0 4.0 0.00 0.00 0.00 92 1020.3
20260506150059 53 234 0.0 2.0 0.00 0.00 0.00 93 1020.3
20260506144554 53 225 0.0 4.0 0.00 0.00 0.00 92 1019.9
20260506143058 53 146 0.0 1.0 0.00 0.00 0.00 93 1019.9
20260506141557 53 0 1.0 2.0 0.00 0.00 0.00 92 1019.8
20260506140059 53 160 0.0 5.0 0.00 0.00 0.00 91 1019.8
20260506134556 53 221 2.0 5.0 0.00 0.00 0.00 91 1019.9
20260506133052 53 0 1.0 2.0 0.00 0.00 0.00 92 1019.6
20260506131602 53 215 0.0 1.0 0.00 0.00 0.00 93 1019.4
20260506130131 53 146 0.0 1.0 0.00 0.00 0.00 94 1019.4
20260506124601 53 137 0.0 1.0 0.00 0.00 0.00 94 1019.2
20260506123053 53 157 0.0 1.0 0.00 0.00 0.00 94 1019.3
20260506121556 53 208 0.0 3.0 0.00 0.00 0.00 93 1019.1
20260506120056 53 151 1.0 3.0 0.00 0.00 0.00 93 1018.6
20260506114553 53 113 0.0 1.0 0.00 0.00 0.00 92 1018.9
20260506113057 53 135 0.0 2.0 0.00 0.00 0.00 91 1018.9
20260506111555 54 216 0.0 2.0 0.00 0.00 0.00 90 1018.8
20260506110100 54 138 1.0 4.0 0.00 0.00 0.00 89 1018.8
20260506104557 54 251 1.0 4.0 0.00 0.00 0.00 88 1018.4
20260506103059 55 137 0.0 4.0 0.00 0.00 0.00 88 1018.2